Starlink 6155

operational
NORAD ID: 57076 Int'l Des: 2023-088 Owner: SPXS Country: US Constellation: starlink
LEOCIRCULAR

Über Starlink 6155

Beschreibung wird geladen...

Live-Position

3D-Globus wird geladen...

Nächste Überflüge

Höhenverlauf

Altitude vs Time

uPlot chart will show altitude changes over time

Zweizeiliger Elementsatz

1 57076U 23088AE 25260.17774282 -.00002088 00000-0 -13947-3 0 9996
2 57076 43.0043 317.7456 0001479 270.7207 89.3466 15.02543842124243
Epoch: 17. Sept. 2025 • Age: 47 hours

Aktueller Status

Höhe 560.1 km
Geschwindigkeit 7.58 km/s
Subsatellitenpunkt -6.92°S, 85.58°E
Startdatum 22. Juni 2023
Alter 2.2 years
Typ internet

Technische Details

Klassifizierung Payload
Masse 305.00 kg
Trockenmasse 290.00 kg
Gesamtmasse 305.00 kg
Länge 0.20 m
Durchmesser 2.80 m
Spannweite 9.00 m
Form Box + pan
Hersteller SPXS
Bus-Typ Starlink
Phasenstatus In Orbit
Besitzer/Staat SPXS/US

Große Konstellationen

Loading constellations...